Location: Ahornberg
(49.9216°N, 11.8454°E)
Time: 18:42:02
(UTC+00:00)

Daily predictions for brighter satellites

Satellite Brightness Start Highest point End
(mag) Time Altitude Azimuth Time Altitude Azimuth Time Altitude Azimuth
SL-16 R/B 4.3 15:39:18 10° N 15:44:17 27° NW 15:49:16 10° WSW
Cosmos 921 Rocket 3.8 15:41:07 10° N 15:44:54 29° ENE 15:48:43 10° ESE
BREEZE-M R/B 3.5 15:39:01 10° W 15:46:34 89° S 15:50:14 10° E
METEOR-M 4.5 15:41:21 10° S 15:46:40 75° WSW 15:52:03 10° NNW
Nadezhda 4 Rocket 4.3 15:40:44 10° SSE 15:46:45 48° E 15:52:45 10° NNE
Genesis I 3.1 15:43:36 10° NW 15:47:32 71° NE 15:51:22 10° SE
ATLAS 2AS CENTAUR R/B 3.7 15:41:23 10° WSW 15:49:08 49° NNW 15:56:47 10° NE
NOAA 6 4.1 15:45:55 10° SSE 15:51:03 87° WSW 15:56:13 10° NNW
ISS -0.3 15:50:13 10° WSW 15:51:45 13° SW 15:53:19 10° SSW
Cosmos 1666 3.3 15:50:17 10° N 15:53:45 34° ENE 15:57:11 10° SE
Meteor 1-11 Rocket 3.9 15:48:15 10° NNW 15:54:16 84° ENE 16:00:12 10° SSE
NOSS 0 Rocket 4.0 15:48:56 10° SSW 15:55:09 76° ESE 16:01:24 10° NNE
Meteor 1-27 Rocket 3.9 15:49:29 10° S 15:55:09 58° E 16:00:56 10° NNE
Cosmos 1689 Rocket 2.0 15:53:23 10° NNE 15:56:26 80° ESE 15:59:26 10° S
COSMOS 2428 3.2 15:52:19 10° SW 15:57:55 60° NW 16:03:36 10° NNE
Cosmos 1867 3.8 15:57:30 10° NW 16:02:50 50° NE 16:08:07 10° ESE
CZ-4B R/B 3.7 16:02:33 10° S 16:07:52 65° WSW 16:13:19 10° NNW
STARLINK-60 3.2 16:04:32 10° WSW 16:07:54 68° SSE 16:10:52 13° ENE
YAOGAN 6 4.1 16:06:15 10° ESE 16:08:36 17° ENE 16:10:59 10° NNE
IRS-1C Rocket 4.1 16:04:03 10° SSE 16:09:15 64° ENE 16:14:29 10° N
PSLV R/B 4.2 16:07:14 10° NNE 16:11:17 51° E 16:15:17 10° S
AQUARIUS 4.3 16:07:08 10° SE 16:11:31 52° ENE 16:15:53 10° N
USA 215 3.5 16:07:17 10° ENE 16:13:43 59° SE 16:20:09 10° SW
Cosmos 2278 Rocket 3.6 16:08:23 10° NW 16:13:45 44° WSW 16:19:04 10° S
Cosmos 2360 Rocket 4.0 16:10:42 10° W 16:15:06 23° NW 16:19:33 10° NNE
STARLINK-52 3.6 16:11:46 10° SW 16:15:11 51° SSE 16:17:57 15° ENE
Cosmos 1782 Rocket 4.0 16:12:07 10° N 16:16:12 38° ENE 16:20:15 10° SE
COBE Rocket 4.1 16:12:52 10° NNE 16:17:21 44° E 16:21:52 10° S
STARLINK-67 2.9 16:16:43 10° WNW 16:19:25 47° N 16:21:14 18° E
Helios 1A Rocket 4.1 16:16:21 10° S 16:20:18 47° W 16:24:16 10° NNW
STARLINK-29 3.4 16:19:47 10° SW 16:23:16 62° SSE 16:25:47 18° ENE
Cosmos 2369 Rocket 2.9 16:18:40 10° NNW 16:23:41 32° NE 16:28:43 10° ESE
Cosmos 614 Rocket 4.5 16:19:37 10° S 16:24:17 38° ESE 16:28:30 12° NE
Cosmos 1862 Rocket 3.8 16:21:21 10° SSW 16:25:42 71° WNW 16:30:08 10° N
RESURS DK-1 4.0 16:23:10 10° WSW 16:26:47 29° NW 16:30:26 10° NNE
STARLINK-46 3.2 16:26:07 10° WNW 16:28:41 39° N 16:29:56 23° NE
Cosmos 1703 Rocket 3.8 16:25:13 10° SSE 16:29:33 50° E 16:33:54 10° NNE
SMAP 3.0 16:25:51 10° SSE 16:30:31 85° ENE 16:35:13 10° NNW
Okean 2 Rocket 4.0 16:26:51 10° N 16:30:40 27° ENE 16:34:30 10° SE
Cosmos 1743 3.1 16:27:41 10° N 16:31:22 40° ENE 16:35:03 10° SE
CORIOLIS 4.1 16:26:50 10° SSE 16:32:16 77° ENE 16:37:45 10° NNW
SL-16 R/B 2.5 16:27:35 10° S 16:33:02 49° ESE 16:37:48 14° NE
Cosmos 1536 3.5 16:29:33 10° NNW 16:33:31 57° W 16:37:25 10° S
Feng Yun 1-1 Rocket 4.2 16:29:02 10° SSE 16:34:25 88° WSW 16:39:54 10° NNW
Sich 1 Rocket 3.8 16:31:48 10° N 16:36:03 45° ENE 16:40:16 10° SSE
Cosmos 1174 4.2 16:32:24 10° SSW 16:37:09 54° ESE 16:39:39 21° NE
CZ-4B R/B 3.9 16:34:52 10° NNW 16:37:34 21° WNW 16:40:13 10° WSW
Cosmos 2237 Rocket 2.5 16:34:56 10° SW 16:40:35 66° WNW 16:46:17 10° NNE
Lacrosse 5 rocket 2.2 16:38:37 10° W 16:42:37 39° NNW 16:44:56 20° NE
FengYun 1-2 T 4.4 16:37:57 10° SE 16:43:12 50° ENE 16:48:32 10° N
Cosmos 2344 4.4 16:34:41 10° NW 16:43:17 51° NNE 16:54:54 10° ESE
Cosmos 1627 Rocket 4.4 16:39:13 10° S 16:45:13 63° E 16:51:18 10° NNE
Cosmos 1812 4.2 16:42:05 10° SW 16:45:41 37° WNW 16:49:19 10° N
Cosmos 2195 Rocket 4.5 16:39:32 10° S 16:45:43 69° E 16:52:01 10° NNE
Cosmos 1943 Rocket 2.4 16:40:57 10° NNW 16:46:28 49° NE 16:51:52 10° SE
SL-4 R/B 1.9 16:43:39 10° WNW 16:47:25 69° N 16:49:31 26° E
Cosmos 2219 Rocket 3.7 16:42:40 10° WSW 16:47:35 30° NW 16:52:33 10° NNE
NOSS 3-1 (C) 4.1 16:40:43 10° NW 16:47:41 52° NE 16:55:30 11° ESE
STARLINK-43 4.4 16:45:22 10° SSW 16:48:42 31° SE 16:50:01 24° ESE
Okean O Rocket 4.0 16:45:18 10° SSW 16:48:53 25° W 16:52:32 10° NW
USA 267 3.5 16:42:53 10° SE 16:49:26 74° SW 16:56:00 10° WNW
Cosmos 2333 Rocket 3.8 16:44:42 10° WSW 16:49:42 30° NW 16:54:45 10° NNE
Cosmos 1140 Rocket 3.8 16:45:47 10° S 16:50:35 42° ESE 16:53:37 21° NE
Abrixas rocket 4.1 16:49:00 10° S 16:50:52 15° SSE 16:51:18 15° SE
Okean 1 3.4 16:50:26 10° S 16:54:17 50° E 16:56:45 20° NNE
Envisat 2.9 16:50:35 10° SSE 16:55:40 79° ENE 17:00:47 10° NNW
Cosmos 2242 Rocket 4.4 16:53:09 10° SSW 16:57:39 55° WNW 17:02:11 10° N
Aureole 1 Rocket 2.8 16:55:31 10° SW 16:58:32 57° WNW 17:00:55 18° NNE
Cosmos 1092 Rocket 4.1 16:52:20 10° S 16:58:39 84° W 17:04:56 10° N
USA 229 DEB 3.9 16:51:38 10° NW 16:58:41 57° NE 17:04:59 15° ESE
USA 229 3.9 16:51:45 10° NW 16:58:46 57° NE 17:05:00 15° ESE
Okean 1-7 2.9 16:54:53 10° S 16:59:14 83° E 17:03:40 10° NNE
Cosmos 1655 Rocket 4.3 16:56:27 10° SSE 17:02:15 41° E 17:08:02 10° NNE
Meteor 2-4 Rocket 4.4 16:58:09 10° SSE 17:03:14 32° E 17:05:02 26° ENE
Cosmos 405 Rocket 3.6 17:00:24 10° N 17:09:24 - SSE 17:02:42 29° NNE
NOSS 3-1 (A) 4.2 16:57:08 10° NW 17:04:00 48° NNE 17:08:59 23° E
CSL-04 Rocket 3.8 16:59:09 10° SE 17:04:11 48° ENE 17:09:18 10° N
Cosmos 407 Rocket 3.4 16:59:38 10° SSW 17:04:50 78° ESE 17:08:45 18° NNE
COSMO-SKYMED 1 2.8 17:05:20 29° NE 17:07:12 47° E 17:11:23 10° S
Cosmos 1300 Rocket 3.8 17:03:17 10° N 17:07:24 41° ENE 17:11:29 10° SE
YAOGAN 1 2.6 17:08:31 10° SE 17:12:43 51° ENE 17:16:56 10° N
CZ-4 R/B 1.1 17:10:02 10° SSE 17:13:52 63° ENE 17:17:41 10° N
Okean-O 3.0 17:09:45 10° S 17:14:09 65° WSW 17:18:35 10° NNW
Meteor 1-19 Rocket 4.2 17:09:56 10° S 17:15:15 56° E 17:18:56 20° NNE
FALCON 9 DEB 3.2 17:16:10 10° W 17:19:39 65° NNW 17:19:57 61° NNE
CSL-04 Debris 4.0 17:20:32 10° SSE 17:25:56 71° ENE 17:31:22 10° NNW
Cosmos 1975 2.9 17:23:30 10° NNW 17:27:30 77° W 17:31:31 10° S
SeaSat 1 4.1 17:29:56 19° NNE 17:29:56 19° NNE 17:32:11 10° N
Cosmos 2263 4.2 17:24:16 10° NNW 17:30:02 63° ENE 17:33:01 29° SE
Okean 3 3.5 17:26:10 10° S 17:29:51 55° ESE 17:29:51 55° ESE
S3M 3.8 17:24:49 10° N 17:31:04 78° E 17:37:12 10° SSE
SKYMED 3 4.4 17:29:41 38° NNE 17:31:19 81° E 17:35:40 10° SSW
Lacrosse 4 Rocket 3.4 17:29:54 10° NNW 17:31:11 16° N 17:31:11 16° N
Meteor 1-12 Rocket 4.1 17:29:48 10° N 17:35:41 72° ENE 17:41:25 10° SSE
Cosmos 2266 Rocket 4.1 17:31:34 10° SSE 17:37:43 51° E 17:40:17 33° NE
Ariane Rocket 4.0 17:40:51 30° NNE 17:40:51 30° NNE 17:43:40 10° N
Lacrosse 5 2.7 17:34:54 10° SSW 17:38:59 33° SE 17:38:59 33° SE
Cosmos 1553 Rocket 4.3 17:35:19 10° NNW 17:41:42 72° W 17:48:04 10° S
YAOGAN 6 3.6 17:38:20 10° S 17:41:47 45° W 17:45:17 10° NNW
ATLAS 2AS CENTAUR R/B 4.1 17:35:08 10° WNW 17:42:02 30° N 17:45:10 23° NNE
Cosmos 2151 Rocket 3.4 17:37:55 10° N 17:42:21 83° ENE 17:46:45 10° SSE
STARLINK-60 4.3 17:41:25 10° W 17:43:50 38° NW 17:43:50 38° NW
Cosmos 1763 Rocket 3.9 17:42:37 10° NNW 17:46:31 45° NNE 17:46:31 45° NNE
CZ-4C R/B 2.8 17:45:45 10° S 17:49:23 37° SSE 17:49:23 37° SSE
STARLINK-52 4.5 17:48:57 10° W 17:51:25 39° WNW 17:51:25 39° WNW
NOAA 11 4.1 17:47:27 10° SSE 17:52:56 89° ENE 17:58:28 10° NNW
SKYMED 2 4.0 17:53:59 39° NNW 17:55:21 59° WNW 17:59:37 10° SSW
USA 215 3.4 17:54:38 42° NE 17:56:50 66° NNW 18:03:18 10° W
Cosmos 1943 3.7 17:52:29 10° S 17:56:42 43° SSE 17:56:42 43° SSE
ATLAS 5 CENTAUR R/B 4.2 17:57:57 10° W 17:58:07 11° W 17:58:07 11° W
Meteor 1-13 Rocket 4.4 17:56:00 10° S 18:00:22 52° SSE 18:00:22 52° SSE
IRS-1A Rocket 4.3 18:01:59 64° NE 18:01:59 64° NE 18:07:34 10° N
Cosmos 676 Rocket 4.2 18:00:03 10° SW 18:05:10 65° WNW 18:06:20 50° N
Cosmos 1656 Rocket 3.7 18:01:23 10° NNW 18:06:00 60° N 18:06:00 60° N
Cosmos 2369 Rocket 2.7 18:02:31 10° NW 18:08:02 57° WSW 18:13:17 11° S
BREEZE-M R/B 4.4 18:05:12 10° W 18:08:07 29° WSW 18:08:07 29° WSW
Cosmos 1954 Rocket 4.3 18:06:09 10° SW 18:11:16 62° WNW 18:12:08 53° NNW
SL-16 R/B 3.5 18:12:07 10° WSW 18:17:20 36° NW 18:19:41 26° N
Cosmos 2315 Rocket 3.8 18:11:35 10° N 18:17:58 84° E 18:18:41 71° SSE
Lacrosse 5 rocket 3.5 18:18:55 10° WNW 18:20:34 20° NW 18:20:34 20° NW
Cosmos 1603 3.8 18:18:30 10° SSW 18:23:46 75° SW 18:23:46 75° SW
Cosmos 2237 Rocket 4.4 18:21:55 10° WNW 18:25:47 18° NW 18:28:15 14° N
SL-4 R/B 3.9 18:23:12 10° WNW 18:25:08 27° W 18:25:08 27° W
Cosmos 1943 Rocket 3.7 18:25:03 10° NW 18:30:02 33° WSW 18:34:57 10° SSW
NOSS 3-1 (C) 4.5 18:31:35 10° NW 18:38:56 59° SW 18:43:01 31° S
CZ-4 R/B 4.4 18:47:28 10° WSW 18:49:19 13° W 18:51:11 10° WNW
NOSS 3-1 (A) 4.2 18:48:01 10° NW 18:55:25 66° SW 18:56:30 61° SSW
Lacrosse 5 4.4 19:17:06 10° WSW 19:18:12 17° WSW 19:18:12 17° WSW
ATLAS 2AS CENTAUR R/B 4.3 19:28:04 10° NW 19:32:37 29° NNW 19:32:37 29° NNW
